Location: Ferchesar
(52.6477°N, 12.4298°E)
Time: 15:36:48
(UTC+01:00)

Tiros 1 despin weight - Pass Details

Date: 06 December 2021
Orbit: 592 x 641 km, 48.2° (Epoch: 20 January)

Event Time Altitude Azimuth Distance (km) Brightness Sun altitude
Rises 18:37:13 0° 272° (W) 2,826 ? -23.1°
Reaches altitude 10° 18:41:07 10° 237° (WSW) 1,922 ? -23.7°
Maximum altitude 18:42:24 11° 220° (SW) 1,846 ? -23.9°
Drops below altitude 10° 18:43:42 10° 203° (SSW) 1,923 ? -24.1°
Enters shadow 18:47:07 - 171° (S) 2,676 ? -24.6°
